Tracking 20712 objects as of 28-May-2020
HD Live streaming from Space Station
objects crossing your sky now

SL-14 DEB

Track SL-14 DEB now!
10-day predictions


NORAD ID: 26003
Int'l Code: 1991-068N
Perigee: 1,307.4 km
Apogee: 1,535.8 km
Inclination: 82.7 °
Period: 114.1 minutes
Semi major axis: 7792 km
RCS: 0.0354 m2 (small)
Launch date: September 28, 1991
Source: Commonwealth of Independent States (former USSR) (CIS)
Launch site: PLESETSK MISSILE AND SPACE COMPLEX (PKMTR)

Note: This is SATELLITE DEBRIS
aabbcc
Your satellite tracking list
Your tracking list is empty




NASA's NSSDC Master Catalog

Two Line Element Set (TLE):
1 26003U 91068N   20147.85852451  .00000460  00000-0  24188-2 0  9992
2 26003  82.7143 114.4449 0146587 351.2251  35.7779 12.62055973944932
Source of the keplerian elements: AFSPC